Regional Weather Roundup
Issued by NWS

Home | Current Version | Previous Version | Graphics & Text | Print | Product List | Glossary On
Versions: 1 2 3 4 5 6 7 8 9 10 11 12 13 14 15 16 17 18 19 20 21 22 23 24 25 26 27 28 29 30 31 32 33 34 35 36 37 38 39 40 41 42 43 44 45 46 47 48 49 50
000
ASUS43 KOAX 220510
RWRNE

WEATHER ROUNDUP FOR NEBRASKA
NATIONAL WEATHER SERVICE OMAHA NE
1200 AM CDT FRI AUG 22 2014

NOTES: SATELLITE DATA IS BEING USED TO AUGMENT CLOUD COVER ABOVE
       12000 FEET.
       "FAIR" INDICATES FEW OR NO CLOUDS BELOW 12,000 FEET WITH NO
       SIGNIFICANT WEATHER AND/OR OBSTRUCTIONS TO VISIBILITY.

  * THESE STATIONS DO NOT REPORT WEATHER SUCH AS RAIN...SNOW OR FOG.

NEZ001>004-019>022-054>056-220600-
NEBRASKA PANHANDLE

CITY           SKY/WX    TMP DP  RH WIND       PRES   REMARKS
SCOTTSBLUFF    MOCLDY    71  53  52 CALM      30.04S
ALLIANCE       PTCLDY    69  51  52 W6        30.04R
CHADRON        MOCLDY    75  49  39 SW10      29.96R
KIMBALL        CLOUDY    68  53  59 CALM      30.08F
SIDNEY         MOCLDY    68  57  68 SW5       30.07S
$$

NEZ057>060-069>072-079>082-220600-
SOUTHWEST NEBRASKA

CITY           SKY/WX    TMP DP  RH WIND       PRES   REMARKS
NORTH PLATTE   CLEAR     67  62  84 E3        29.96F
IMPERIAL       PTCLDY    71  63  75 E5        29.99S
LEXINGTON      CLEAR     73  71  92 E3        29.94R
MCCOOK         CLEAR     72  66  81 NE6       29.95R
OGALLALA       CLEAR     68  62  80 CALM      30.00R
$$

NEZ005>010-023>029-035>040-094-220600-
NORTH CENTRAL NEBRASKA

CITY           SKY/WX    TMP DP  RH WIND       PRES   REMARKS
VALENTINE      CLEAR     74  58  57 SE9       29.97R
AINSWORTH      PTCLDY    68  63  83 SE3       29.97S
BROKEN BOW     CLEAR     69  65  86 N3        29.95R
O`NEILL        CLEAR     71  66  85 NE5       29.93S
ORD            CLEAR     73  68  84 CALM      29.91S
THEDFORD       CLEAR     70  62  74 CALM      29.98S
$$

NEZ041-046>049-061>064-073>077-083>087-220600-
SOUTH CENTRAL NEBRASKA

CITY           SKY/WX    TMP DP  RH WIND       PRES   REMARKS
GRAND ISLAND   PTCLDY    76  70  82 S7        29.92R
AURORA         CLOUDY    73  73 100 SE5       29.94R
HASTINGS       MOCLDY    75  66  73 SE6       29.93R
HEBRON         LGT RAIN  76  64  66 S6        29.92F
HOLDREGE       CLEAR     75  72  89 E6        29.93R
KEARNEY *      PTCLDY    73  72  94 E3        29.93R
YORK           CLOUDY    73 N/A N/A S3        29.92R
$$

NEZ011>018-030>034-042>045-220600-
NORTHEAST NEBRASKA

CITY           SKY/WX    TMP DP  RH WIND       PRES   REMARKS
NORFOLK        MOCLDY    77  73  87 S3        29.89F
ALBION         PTCLDY    75  70  84 CALM      29.91S
BLAIR          CLOUDY    78  69  73 NW8       29.88S THUNDER
FREMONT        RAIN      74  71  90 CALM      29.88F
TEKAMAH        CLOUDY    78  71  79 SE7       29.86F
WAYNE          MOCLDY    73  72  96 CALM      29.90S
$$

NEZ050>053-065>068-078-088>093-220600-
SOUTHEAST NEBRASKA

CITY           SKY/WX    TMP DP  RH WIND       PRES   REMARKS
LINCOLN        CLOUDY    78  74  87 N7        29.90R
OMAHA EPPLEY   CLOUDY    81  77  88 NW15      29.88R THUNDER
BEATRICE       CLOUDY    78  76  94 CALM      29.90R
FALLS CITY     MOCLDY    84  71  65 S6        29.86R
NEBRASKA CITY  CLOUDY    79  79 100 CALM      29.87R
PLATTSMOUTH    CLOUDY    81  75  81 E3        29.87S THUNDER
$$

NEZ044-045-051>053-067-220600-
OMAHA AREA

CITY           SKY/WX    TMP DP  RH WIND       PRES   REMARKS
OMAHA EPPLEY   CLOUDY    81  77  88 NW15      29.88R THUNDER
BLAIR          CLOUDY    78  69  73 NW8       29.88S THUNDER
FREMONT        RAIN      74  71  90 CALM      29.88F
MILLARD        CLOUDY    83  75  75 NW9       29.88R THUNDER HX  90
OFFUTT AFB     CLOUDY    81  81 100 W9        29.86R THUNDER HX  91
PLATTSMOUTH    CLOUDY    81  75  81 E3        29.87S THUNDER
WAHOO          DRIZZLE   74  69  83 CALM      29.88F
$$



USA.gov is the U.S. government's official web portal to all federal, state and local government web resources and services.